Find Local Weather

World > North America > United States > Virginia

Richmond, Virginia Regional Weather

Lat: 37.48N, Lon: 77.47W
Wx Zone: VAZ096
Warning FLW WEATHER ALERT - (More Info. Click Here) Warning
Feedback
Expires:201812191500;;029333
ASUS41 KAKQ 191414
RWRAKQ

REGIONAL WEATHER ROUNDUP
NATIONAL WEATHER SERVICE WAKEFIELD VA
900 AM EST WED DEC 19 2018

Note: "fair" indicates few or no clouds below 12,000 feet with no
significant weather and/or obstructions to visibility. * = Denotes
station may not report precipitation (e.g., rain,snow,etc.),
thunder or fog.


VAZ088>098-191500-
SOUTHEAST VIRGINIA
  
CITY           SKY/WX    TMP DP  RH WIND       PRES   REMARKS
NORFOLK        FAIR      39  33  79 CALM      30.23R                  
VIRGINIA BEACH FAIR      36  33  89 CALM      30.24R                  
NORFOLK NAVAL  FAIR      39  35  86 S3        30.25R                  
WEST POINT*    FAIR      34  32  94 CALM      30.25R                  
SALUDA*        FAIR      36  32  88 SW3       30.23R                  
NEWPORT NEWS   FAIR      34  31  88 CALM      30.23S                  
LANGLEY AFB    FAIR      36  36  99 CALM      30.23S                  
FORT EUSTIS    FAIR      35  32  89 CALM      30.21R                  
WILLIAMSBURG*  FAIR      34  34 100 CALM      30.24S                  
HR EXEC AP*    NOT AVBL                                               
FRANKLIN*      FAIR      32  31  98 CALM      30.24R                  
US460-WAKEFLD  FAIR      34  31  88 CALM      30.24R                  
$$


SKY/WX - Weather  TMP - Temperature  DP - Dew Point  RH - Relative Humidity
WIND - Wind Direction/Speed PRES - Barometric Pressure